"Pseudo-MPEC" for P11kncq

Created 2021 Sep 16 10:07:22 UT using Find_Orb

Click here for an explanation of pseudo-MPECs

 
 Astrometry: 
     P11kncq  C2021 09 07_cYcUE-hJm7ajCL_$E$hoyMvFxZr0UXNhu)h)L8v=y@:%K^`A]4wF51
     P11kncq  C2021 09 0734Om,_3k:q3wCKMAstrometry`$m*LrV0XQGFN[ZW(g+_*Py!cPDF51
     P11kncq  C2021 09 07h#^FJ^QQVredacted;a;h8c5@xowZ6m?vwoOx2ZvT]Z!b,9NmT=_F51
     P11kncq  C2021 09 07q,%oUV*lIIB!?Ky++v`CV;+OGDWnxNSJZ2sjB#\kMXFF)FQivk2,F51
     P11kncq KC2021 09 10.38860 00 27 36.81 -22 49 58.8    ~9ABb 21.6 RoNEOCP691
     P11kncq KC2021 09 10.40049 00 27 35.65 -22 49 57.9    ~9ABb 21.6 RoNEOCP691
     P11kncq KC2021 09 10.41238 00 27 34.43 -22 49 57.0    ~9ABb 21.1 RoNEOCP691
     P11kncq  C2021 09 10,=[-;clickm!mAT=@7lb:(.g:T3wT?fP0R]qIr$deXa4O=Ufcq[kF51
     P11kncq  C2021 09 10%_Z6\4/#??/VjYNICn)U/=+LLK5D`Z#c?]SULb2E[B!!)OxQXT`OF51
     P11kncq  C2021 09 1592G%'#BF;uVA7hfr0gRep'dH_.51Ak)hk.JHPJc%*IJhereiY7AEF51
     P11kncq  C2021 09 15.#c0bfor[Ql9Bu\g^,6h0Sn78d`b-sT)r,[LHpDb8v8tdvZTdja2F51
     P11kncq  C2021 09 15[SQup^IJAufM1lv'jPj(L\6X6Dexplanationv[,c9:l/R;3t6y!F51

Station data:
(691) Steward Observatory, Kitt Peak - Spacewatch  (N31.962174 W111.600327)
   US/Arizona.  Observer J. V. Scotti. 0.9-m f/3 reflector + CCD.
(F51) Pan-STARRS 1, Haleakala  (N20.707235 W156.255910)  US/Hawaii.
   Observers N. Primak, A. Schultz, S. Watters, J. Thiel, T. Goggia. Measurer
   PS1 Science Consortium. 1.8-m Ritchey-Chrétien + CCD.

Orbital elements:  P11kncq
   Perihelion 2022 Oct 29.334147 +/- 4.8486 TT =  8:01:10 (JD 2459881.834147)
Epoch 2021 Sep 15.0 TT = JDT 2459472.5   Earth MOID: 0.7920   AutoNEOCP
M 201.18258062 +/- 2.0930797        (J2000 ecliptic)
n   0.38798966 +/- 0.000641371      Peri.  129.07716 +/- 1.7881847
a   1.86175534 +/- 0.00205148       Node    23.38259 +/- 0.1031796
e   0.0512654 +/- 0.00109279        Incl.   21.72227 +/- 0.0964445
P   2.54/927.84d           H 19.7   G  0.15   U  7.8  
q 1.76631157 +/- 0.000564414    Q 1.95719911 +/- 0.00413581
From 12 observations 2021 Sept. 7-15; mean residual 0".21
Residuals in arcseconds: 
210907 F51  .06+  .06+    210910 691  .14-  .32+    210910 F51  .18+  .33-    
210907 F51  .02-  .04+    210910 691  .13+  .30+    210915 F51  .21-  .02-    
210907 F51  .02-  .03+    210910 691  .43-  .25+    210915 F51  .18-  .11-    
210907 F51  .03-  .14-    210910 F51  .20+  .40-    210915 F51  .38+  .14+    

Ephemerides (geocentric):
Date (UTC) HH   RA              Dec         delta   r     elong  mag " sig PA
---- -- -- --  -------------   -----------  ------ ------ -----  --- ---- ---
2021 09 16 10  00 17 34.729   -22 36 15.74  .98362 1.9510 157.6 21.9 .280  12
2021 09 16 11  00 17 30.433   -22 36 07.38  .98358 1.9510 157.6 21.9 .288  12
2021 09 16 12  00 17 26.136   -22 35 58.98  .98354 1.9510 157.6 21.9 .296  12
2021 09 16 13  00 17 21.838   -22 35 50.54  .98351 1.9510 157.6 21.9 .305  12
2021 09 16 14  00 17 17.538   -22 35 42.07  .98347 1.9510 157.6 21.9 .313  13
2021 09 16 15  00 17 13.237   -22 35 33.55  .98343 1.9510 157.6 21.9 .321  13
2021 09 16 16  00 17 08.935   -22 35 25.00  .98340 1.9510 157.7 21.9 .330  13
2021 09 16 17  00 17 04.631   -22 35 16.41  .98336 1.9510 157.7 21.9 .338  13
2021 09 16 18  00 17 00.326   -22 35 07.77  .98333 1.9510 157.7 21.9 .347  13
2021 09 16 19  00 16 56.020   -22 34 59.10  .98329 1.9510 157.7 21.9 .356  14
2021 09 16 20  00 16 51.713   -22 34 50.39  .98326 1.9510 157.7 21.9 .364  14
2021 09 16 21  00 16 47.404   -22 34 41.64  .98323 1.9509 157.7 21.9 .373  14
2021 09 16 22  00 16 43.094   -22 34 32.85  .98319 1.9509 157.7 21.9 .382  14
2021 09 16 23  00 16 38.783   -22 34 24.03  .98316 1.9509 157.7 21.9 .391  14
2021 09 17 00  00 16 34.471   -22 34 15.16  .98313 1.9509 157.7 21.9 .400  15
2021 09 17 01  00 16 30.157   -22 34 06.25  .98310 1.9509 157.8 21.9 .409  15
2021 09 17 02  00 16 25.842   -22 33 57.31  .98307 1.9509 157.8 21.9 .419  15
2021 09 17 03  00 16 21.526   -22 33 48.33  .98303 1.9509 157.8 21.9 .428  15
2021 09 17 04  00 16 17.209   -22 33 39.30  .98300 1.9509 157.8 21.9 .437  15
2021 09 17 05  00 16 12.891   -22 33 30.24  .98297 1.9509 157.8 21.9 .447  15
2021 09 17 06  00 16 08.572   -22 33 21.14  .98294 1.9509 157.8 21.9 .456  16
2021 09 17 07  00 16 04.251   -22 33 12.00  .98291 1.9508 157.8 21.9 .466  16
2021 09 17 08  00 15 59.930   -22 33 02.82  .98289 1.9508 157.8 21.9 .476  16
2021 09 17 09  00 15 55.607   -22 32 53.60  .98286 1.9508 157.8 21.9 .486  16
2021 09 17 10  00 15 51.283   -22 32 44.34  .98283 1.9508 157.8 21.9 .495  16
2021 09 17 11  00 15 46.958   -22 32 35.04  .98280 1.9508 157.8 21.9 .505  16
2021 09 17 12  00 15 42.632   -22 32 25.70  .98277 1.9508 157.9 21.9 .516  17
2021 09 17 13  00 15 38.305   -22 32 16.32  .98275 1.9508 157.9 21.9 .526  17
2021 09 17 14  00 15 33.976   -22 32 06.90  .98272 1.9508 157.9 21.9 .536  17
2021 09 17 15  00 15 29.647   -22 31 57.45  .98270 1.9508 157.9 21.9 .546  17
2021 09 17 16  00 15 25.317   -22 31 47.95  .98267 1.9508 157.9 21.9 .557  17
2021 09 17 17  00 15 20.985   -22 31 38.42  .98264 1.9508 157.9 21.9 .567  17
2021 09 17 18  00 15 16.653   -22 31 28.84  .98262 1.9507 157.9 21.9 .578  18
2021 09 17 19  00 15 12.320   -22 31 19.23  .98260 1.9507 157.9 21.9 .588  18
2021 09 17 20  00 15 07.985   -22 31 09.57  .98257 1.9507 157.9 21.9 .599  18
2021 09 17 21  00 15 03.650   -22 30 59.88  .98255 1.9507 157.9 21.9 .610  18
2021 09 17 22  00 14 59.313   -22 30 50.14  .98253 1.9507 157.9 21.9 .621  18
2021 09 17 23  00 14 54.976   -22 30 40.37  .98250 1.9507 157.9 21.9 .632  18
2021 09 18 00  00 14 50.638   -22 30 30.56  .98248 1.9507 158.0 21.9 .643  18
2021 09 18 01  00 14 46.298   -22 30 20.70  .98246 1.9507 158.0 21.9 .654  19
2021 09 18 02  00 14 41.958   -22 30 10.81  .98244 1.9507 158.0 21.9 .665  19
2021 09 18 03  00 14 37.617   -22 30 00.88  .98242 1.9507 158.0 21.9 .676  19
2021 09 18 04  00 14 33.275   -22 29 50.91  .98240 1.9507 158.0 21.9 .688  19
2021 09 18 05  00 14 28.932   -22 29 40.90  .98238 1.9506 158.0 21.9 .699  19
2021 09 18 06  00 14 24.588   -22 29 30.85  .98236 1.9506 158.0 21.9 .711  19
2021 09 18 07  00 14 20.243   -22 29 20.75  .98234 1.9506 158.0 21.9 .723  19
2021 09 18 08  00 14 15.897   -22 29 10.62  .98232 1.9506 158.0 21.9 .734  19
2021 09 18 09  00 14 11.551   -22 29 00.45  .98230 1.9506 158.0 21.9 .746  20